Le nostre stazioni meteo in Italia

Pubblicità
Il mio iltempo24.it
Cagliari/Elmas, Italia (16560): Temperatura & dewpoint: 09.09.2019 21:00:00 - 15.09.2019 21:00:00 (CEST)Cagliari/Elmas, Italia (16560): velocità del vento: 09.09.2019 21:00:00 - 15.09.2019 21:00:00 (CEST)Cagliari/Elmas, Italia (16560): direzione del vento: 09.09.2019 21:00:00 - 15.09.2019 21:00:00 (CEST)Cagliari/Elmas, Italia (16560): reduced air pressure: 09.09.2019 21:00:00 - 15.09.2019 21:00:00 (CEST)Cagliari/Elmas, Italia (16560): visibility: 09.09.2019 21:00:00 - 15.09.2019 21:00:00 (CEST)Cagliari/Elmas, Italia (16560): precipitazioni: 09.09.2019 21:00:00 - 15.09.2019 21:00:00 (CEST)
Data & Tempo tt [°C] td [°C] ff [km/h] ff [kn] dd ppp [hPa] vv [km] rr [mm]
15.09.2019 21:00:00 25,0 19,0 15 8 SSE - 10 -
15.09.2019 20:00:00 25,2 19,4 15 8 SSE 1020,9 10 -
15.09.2019 19:00:00 26,0 20,0 16 9 SSE - 10 -
15.09.2019 18:00:00 26,0 20,0 15 8 S - 10 -
15.09.2019 17:00:00 26,8 19,6 22 12 S 1021,6 10 0,0
15.09.2019 16:00:00 27,0 19,0 22 12 S - 10 -
15.09.2019 15:00:00 28,0 19,0 18 10 SSE - 10 -
15.09.2019 14:00:00 27,6 20,0 16 9 S 1022,3 10 -
15.09.2019 13:00:00 28,0 20,0 18 10 SSE - 10 -
15.09.2019 12:00:00 27,0 21,0 18 10 SE - 10 -
15.09.2019 11:00:00 26,2 20,5 13 7 S 1024,5 10 0,0
15.09.2019 10:00:00 26,0 18,0 4 2 - - 10 -
15.09.2019 09:00:00 21,0 18,0 8 4 O - 10 -
15.09.2019 08:00:00 18,8 16,3 4 2 - 1023,5 10 -
15.09.2019 07:00:00 19,0 17,0 8 4 NO - 10 -
15.09.2019 06:00:00 20,0 16,0 5 3 NNO - 10 -
15.09.2019 05:00:00 19,5 16,5 9 5 NE 1023,7 10 0,0
15.09.2019 04:00:00 21,0 18,0 9 5 ONO - 10 -
15.09.2019 03:00:00 21,0 15,0 8 4 NNE - 10 -
15.09.2019 02:00:00 20,8 15,5 5 3 N 1023,7 10 -
15.09.2019 01:00:00 21,0 17,0 9 5 N - 10 -
15.09.2019 00:00:00 23,0 18,0 5 3 ENE - 10 -
14.09.2019 23:00:00 24,1 18,5 9 5 SE 1023,7 10 0,0
14.09.2019 22:00:00 25,0 19,0 9 5 ESE - 10 -
14.09.2019 21:00:00 26,0 19,0 13 7 E - 10 -
14.09.2019 20:00:00 25,4 19,7 11 6 SSE 1023,4 10 -
14.09.2019 19:00:00 27,0 19,0 15 8 SSE - 10 -
14.09.2019 18:00:00 28,0 18,0 21 11 SSE - 10 -
14.09.2019 17:00:00 29,1 18,0 21 11 SSE 1023,1 10 0,0
14.09.2019 16:00:00 30,0 18,0 22 12 SE - 10 -
14.09.2019 15:00:00 30,0 18,0 24 13 SE - 10 -
14.09.2019 14:00:00 29,2 17,3 13 7 S 1024,3 10 -
14.09.2019 13:00:00 28,0 17,0 13 7 SSO - 10 -
14.09.2019 12:00:00 27,0 17,0 13 7 SSO - 10 -
14.09.2019 11:00:00 25,9 16,4 5 3 SO 1025,1 10 0,0
14.09.2019 10:00:00 24,0 16,0 4 2 - - 10 -
14.09.2019 09:00:00 21,0 16,0 8 4 NO - 10 -
14.09.2019 08:00:00 18,9 16,4 8 4 NO 1024,7 10 -
14.09.2019 07:00:00 19,0 15,0 5 3 N - 10 -
14.09.2019 06:00:00 18,0 15,0 9 5 NNO - 10 -
14.09.2019 05:00:00 21,3 16,8 2 1 - 1023,9 10 0,0
14.09.2019 04:00:00 21,0 16,0 5 3 E - 10 -
14.09.2019 03:00:00 22,0 17,0 8 4 E - 10 -
14.09.2019 02:00:00 22,8 15,8 9 5 SE 1024,6 10 -
14.09.2019 01:00:00 21,0 18,0 5 3 SSE - 10 -
14.09.2019 00:00:00 22,0 17,0 9 5 ENE - 10 -
13.09.2019 23:00:00 24,2 15,1 8 4 S 1025,2 10 0,0
13.09.2019 22:00:00 25,0 19,0 16 9 SSO - 10 -
13.09.2019 21:00:00 25,0 19,0 13 7 S - 10 -
13.09.2019 20:00:00 25,5 19,5 16 9 SSO 1024,6 10 -
13.09.2019 19:00:00 27,0 19,0 16 9 S - 10 -
13.09.2019 18:00:00 28,0 20,0 18 10 S - 10 -
13.09.2019 17:00:00 28,7 18,3 15 8 S 1024,4 10 0,0
13.09.2019 16:00:00 29,0 19,0 15 8 S - 10 -
13.09.2019 15:00:00 29,0 20,0 22 12 S - 10 -
13.09.2019 14:00:00 28,8 18,9 22 12 SSO 1025,7 10 -
13.09.2019 13:00:00 28,0 18,0 21 11 SSO - 10 -
13.09.2019 12:00:00 28,0 16,0 18 10 SSO - 10 -
13.09.2019 11:00:00 26,6 14,6 13 7 SSO 1026,2 10 0,0
13.09.2019 10:00:00 24,0 15,0 4 2 - - 10 -
13.09.2019 09:00:00 21,0 16,0 5 3 NO - 10 -
13.09.2019 08:00:00 18,1 15,9 5 3 NNO 1025,4 10 -
13.09.2019 07:00:00 18,0 15,0 8 4 NNO - 10 -
13.09.2019 06:00:00 19,0 16,0 11 6 ONO - 10 -
13.09.2019 05:00:00 18,3 16,2 8 4 ONO 1024,9 10 0,0
13.09.2019 04:00:00 - - - - - - - -
13.09.2019 03:00:00 19,0 16,0 9 5 NNO - 10 -
13.09.2019 02:00:00 20,1 15,9 8 4 NNO 1025,9 10 -
13.09.2019 01:00:00 23,0 16,0 2 1 - - 10 -
13.09.2019 00:00:00 24,0 17,0 8 4 ESE - 10 -
12.09.2019 23:00:00 23,8 17,9 11 6 ESE 1026,4 10 0,0
12.09.2019 22:00:00 25,0 19,0 13 7 SE - 10 -
12.09.2019 21:00:00 25,0 19,0 11 6 SE - 10 -
12.09.2019 20:00:00 25,4 20,0 11 6 SE 1025,3 10 -
12.09.2019 19:00:00 26,0 21,0 15 8 SSE - 10 -
12.09.2019 18:00:00 27,0 21,0 16 9 SSE - 10 -
12.09.2019 17:00:00 28,1 20,6 21 11 SSE 1024,3 10 0,0
12.09.2019 16:00:00 28,0 21,0 22 12 SSE - 10 -
12.09.2019 15:00:00 29,0 21,0 15 8 S - 10 -
12.09.2019 14:00:00 29,1 20,0 15 8 SSO 1024,7 10 -
12.09.2019 13:00:00 29,0 19,0 11 6 SO - 10 -
12.09.2019 12:00:00 28,0 19,0 9 5 OSO - 10 -
12.09.2019 11:00:00 26,9 18,3 5 3 N 1025,4 10 0,0
12.09.2019 10:00:00 24,0 18,0 8 4 NO - 10 -
12.09.2019 09:00:00 21,0 18,0 9 5 NNO - 10 -
12.09.2019 08:00:00 19,6 17,3 8 4 N 1024,5 10 -
12.09.2019 07:00:00 19,0 18,0 8 4 NNO - 10 -
12.09.2019 06:00:00 19,0 17,0 5 3 ONO - 10 -
12.09.2019 05:00:00 19,7 16,6 5 3 N 1022,5 10 0,0
12.09.2019 04:00:00 20,0 17,0 9 5 N - 10 -
12.09.2019 03:00:00 22,0 18,0 2 1 - - 10 -
12.09.2019 02:00:00 22,5 17,9 9 5 O 1021,8 10 -
12.09.2019 01:00:00 23,0 17,0 4 2 - - 10 -
12.09.2019 00:00:00 24,0 17,0 11 6 ENE - 10 -
11.09.2019 23:00:00 24,5 17,4 21 11 E 1021,3 10 0,0
11.09.2019 22:00:00 25,0 17,0 15 8 E - 10 -
11.09.2019 21:00:00 25,0 19,0 9 5 NNE - 10 -
11.09.2019 20:00:00 25,3 18,0 5 3 NNE 1018,7 10 -
11.09.2019 19:00:00 26,0 20,0 8 4 S - 10 -
11.09.2019 18:00:00 27,0 18,0 11 6 S - 10 -
11.09.2019 17:00:00 27,7 18,8 13 7 S 1018,4 10 0,0
11.09.2019 16:00:00 28,0 18,0 16 9 SSE - 10 -
11.09.2019 15:00:00 28,0 19,0 21 11 SSE - 10 -
11.09.2019 14:00:00 28,3 18,6 18 10 SE 1017,6 10 -
11.09.2019 13:00:00 29,0 18,0 18 10 SSE - 10 -
11.09.2019 12:00:00 28,0 18,0 15 8 SE - 10 -
11.09.2019 11:00:00 26,5 18,4 15 8 ESE 1016,2 10 0,0
11.09.2019 10:00:00 26,0 18,0 24 13 E - 10 -
11.09.2019 09:00:00 23,0 18,0 5 3 N - 10 -
11.09.2019 08:00:00 22,5 18,7 4 2 - 1014,8 10 -
11.09.2019 07:00:00 20,0 18,0 9 5 N - 10 -
11.09.2019 06:00:00 20,0 18,0 9 5 NO - 10 -
11.09.2019 05:00:00 21,1 18,5 8 4 N 1012,3 10 0,0
11.09.2019 04:00:00 22,0 18,0 13 7 ENE - 10 -
11.09.2019 03:00:00 22,0 18,0 11 6 E - 10 -
11.09.2019 02:00:00 22,5 17,5 15 8 E 1012,3 10 -
11.09.2019 01:00:00 23,0 18,0 8 4 ENE - 10 -
11.09.2019 00:00:00 23,0 18,0 9 5 ESE - 10 -
10.09.2019 23:00:00 24,1 19,1 11 6 SE 1011,4 10 0,0
10.09.2019 22:00:00 24,0 19,0 18 10 ESE - 10 -
10.09.2019 21:00:00 24,0 16,0 18 10 ESE - 10 -
10.09.2019 20:00:00 24,2 19,1 11 6 SSE 1010,4 10 -
10.09.2019 19:00:00 25,0 19,0 16 9 SSE - 10 -
10.09.2019 18:00:00 26,0 18,0 18 10 SSE - 10 -
10.09.2019 17:00:00 25,7 16,5 21 11 SSE 1010,3 10 0,0
10.09.2019 16:00:00 26,0 17,0 16 9 SE - 10 -
10.09.2019 15:00:00 26,0 17,0 15 8 S - 10 -
10.09.2019 14:00:00 26,8 17,7 16 9 SE 1011,8 10 -
10.09.2019 13:00:00 27,0 18,0 16 9 SSE - 10 -
10.09.2019 12:00:00 26,0 17,0 15 8 SSE - 10 -
10.09.2019 11:00:00 25,7 17,9 5 3 S 1013,2 10 0,0
10.09.2019 10:00:00 23,0 15,0 2 1 - - 10 -
10.09.2019 09:00:00 19,0 14,0 5 3 NNO - 10 -
10.09.2019 08:00:00 15,7 13,4 8 4 NNO 1013,6 10 -
10.09.2019 07:00:00 15,0 13,0 9 5 NNO - 10 -
10.09.2019 06:00:00 15,0 13,0 11 6 NNO - 10 -
10.09.2019 05:00:00 16,0 13,3 8 4 NNO 1013,9 10 0,0
10.09.2019 04:00:00 17,0 14,0 9 5 NNO - 10 -
10.09.2019 03:00:00 18,0 14,0 9 5 ONO - 10 -
10.09.2019 02:00:00 17,5 13,8 11 6 NNO 1015,9 10 -
10.09.2019 01:00:00 18,0 14,0 15 8 NNO - 10 -
10.09.2019 00:00:00 20,0 15,0 11 6 ONO - 10 -
09.09.2019 23:00:00 20,2 13,6 16 9 NNO 1016,3 10 0,0
09.09.2019 22:00:00 21,0 13,0 16 9 NNO - 10 -
09.09.2019 21:00:00 22,0 12,0 15 8 N - 10 -

tt = Temperatura
td = dewpoint
ff = velocità del vento
dd = direzione del vento
ppp = reduced air pressure
vv = visibility
rr = precipitazioni

Stazioni seguenti

WeatherPro
AMSI
MeteoEarth